GFSNE_sfc_dewp_132.txt.gz
Dewpoint
74 75 75 73 71 71 63 70 70 66 65 69 68 73 72 68 70 72 67 65 64 64 64 65 65 66 67 68 69 70 72 74 73 73 74 74 74 74
72 73 74 73 72 71 68 70 71 66 66 68 71 73 74 70 74 71 65 63 63 63 63 63 64 64 65 65 67 68 68 69 69 70 71 71 73 74
75 74 74 75 74 73 73 71 70 70 69 67 74 73 69 73 73 72 67 64 62 63 62 62 61 62 62 62 63 64 66 67 68 69 70 70 71 72
73 73 73 70 74 73 74 74 73 73 72 70 72 73 74 75 74 74 71 60 60 61 61 60 59 59 58 58 59 59 60 61 63 65 66 68 68 69
74 73 73 73 73 73 74 74 74 72 72 71 71 72 71 73 73 73 69 62 57 61 61 60 59 58 57 56 56 55 55 56 57 58 60 62 63 64
74 74 73 73 74 74 72 74 72 73 73 71 72 70 71 72 73 72 71 70 60 57 61 60 58 59 57 56 56 55 54 53 54 55 56 57 59 60
75 74 73 74 71 72 75 74 75 73 73 73 71 70 71 70 69 70 70 71 70 69 59 59 61 56 54 54 53 54 54 54 53 53 54 54 55 55
73 74 75 72 72 70 70 70 71 74 72 71 71 71 70 68 67 69 71 69 67 73 70 62 56 54 54 52 52 52 53 53 53 53 53 52 52 52
74 73 72 70 72 74 70 67 68 68 69 72 72 71 71 72 72 71 71 70 70 71 69 60 55 52 50 49 52 51 51 52 52 52 52 51 50 50
72 72 71 73 65 68 71 73 73 67 66 64 67 66 67 66 68 71 70 71 72 72 70 64 57 50 47 49 50 51 51 51 50 50 50 50 49 48
67 60 62 65 56 57 67 70 69 65 60 58 57 58 58 59 61 68 64 68 67 66 68 66 64 52 47 46 47 48 50 50 49 49 48 48 48 48
64 59 56 54 54 55 63 66 66 66 63 63 62 61 61 57 57 56 55 59 62 64 55 60 61 58 55 49 45 45 46 48 48 48 48 48 46 47
63 59 57 54 53 53 55 57 57 62 61 62 60 55 55 53 53 54 54 54 57 55 56 59 61 59 58 54 50 47 47 46 46 45 48 47 46 47
60 57 54 52 51 52 55 55 56 59 60 59 57 56 56 55 55 55 54 55 58 57 56 56 55 52 50 51 55 53 50 48 51 49 50 45 45 47
57 54 52 52 53 54 54 55 57 58 59 58 57 56 56 55 56 53 53 53 51 51 52 55 55 53 52 51 54 53 50 51 50 50 52 51 52 50
54 54 55 55 55 55 56 57 58 58 58 55 55 54 55 54 55 54 53 52 50 53 54 54 55 54 53 53 51 49 49 50 52 50 49 51 51 50
56 55 55 55 54 54 54 54 55 54 54 55 54 56 55 55 55 54 51 51 52 52 51 51 53 52 52 50 48 48 48 48 51 50 50 50 49 49
56 55 55 55 55 55 55 54 53 53 55 53 50 49 48 44 43 45 46 46 46 46 47 49 48 47 47 47 48 51 48 48 52 50 50 49 48 50
53 52 53 54 53 53 52 52 51 50 51 50 48 48 47 45 41 45 46 45 46 46 48 48 46 47 43 44 44 45 46 49 47 48 48 47 46 47
50 50 51 51 51 51 51 50 50 50 51 51 50 50 48 48 46 45 44 44 45 47 45 46 46 45 45 44 45 46 42 46 45 45 45 45 46 49
50 51 50 50 51 52 52 53 53 52 52 52 51 50 49 48 48 47 43 42 41 44 44 45 43 44 48 48 43 45 43 43 45 42 43 41 40 41
49 51 53 54 55 56 55 55 53 50 52 51 51 50 50 47 44 43 43 42 42 41 44 46 48 47 47 44 41 43 47 44 45 46 47 46 43 39
52 53 54 56 57 56 55 54 51 50 52 50 49 50 49 46 47 45 43 43 43 43 43 42 45 44 43 43 41 41 42 43 43 45 46 48 48 47

GFSNE_sfc_dewp_138.txt.gz
Dewpoint
69 70 70 70 70 68 67 68 64 61 59 65 68 70 72 69 70 66 65 65 65 65 64 64 65 65 67 69 70 70 71 71 71 71 72 73 73 73
70 70 69 69 69 69 69 69 67 65 61 67 68 69 71 71 67 65 65 64 64 64 63 63 64 64 65 66 66 68 68 69 69 69 69 70 71 72
70 70 70 70 70 70 69 70 69 69 64 66 70 70 70 69 66 65 63 62 63 63 62 62 62 63 62 63 63 64 65 66 67 68 69 70 70 71
70 70 69 71 69 69 70 69 69 68 67 65 68 69 68 70 65 65 63 60 61 61 61 61 61 61 60 60 60 61 61 62 63 64 66 67 68 69
71 71 70 70 69 69 69 69 69 70 69 68 66 68 69 70 67 66 64 61 60 59 59 59 59 59 58 58 57 57 56 58 59 60 62 63 65 66
71 71 70 70 70 69 70 69 70 70 69 68 68 67 68 69 69 64 62 63 61 56 57 57 57 58 57 57 56 56 55 55 56 57 57 59 60 61
71 71 71 71 70 69 70 68 69 68 68 67 66 66 66 67 66 67 65 63 61 60 56 59 53 50 53 56 57 56 55 55 55 54 54 54 55 56
69 69 71 70 69 67 67 67 67 68 66 66 66 65 65 65 65 66 66 67 66 62 58 59 59 53 49 52 55 56 55 54 54 53 53 52 53 53
68 69 70 65 63 67 66 66 65 64 65 67 66 64 65 64 65 64 65 66 64 63 60 55 54 56 55 50 53 54 55 54 53 52 51 50 50 50
63 64 63 58 58 61 66 68 63 61 61 61 60 59 59 59 62 66 65 66 62 59 60 54 50 50 52 52 51 52 53 53 52 51 49 49 48 48
58 57 56 57 57 60 66 63 60 60 58 57 57 56 56 56 57 60 56 61 63 57 57 62 53 48 47 49 51 51 51 51 51 50 49 48 47 47
56 57 57 55 55 57 63 62 61 62 60 59 57 55 53 53 55 54 55 56 57 56 56 61 61 53 51 44 44 48 48 51 50 50 49 48 47 44
59 58 57 55 53 54 56 60 61 62 59 58 58 57 56 55 52 53 54 56 57 55 56 59 57 57 57 53 50 48 49 50 50 47 49 48 47 47
57 56 55 52 52 53 55 55 56 59 60 58 57 56 55 55 55 53 53 54 55 55 55 57 56 56 55 54 54 51 49 49 46 41 43 44 46 47
56 54 53 52 53 54 54 55 56 58 58 56 55 55 55 54 54 53 53 51 51 52 52 54 53 54 54 53 52 48 46 45 42 43 43 44 43 47
54 53 55 54 53 53 54 54 56 55 54 53 53 54 53 53 52 52 50 50 47 49 49 50 51 50 50 50 49 48 48 46 45 46 44 46 47 44
52 52 52 53 52 51 52 51 52 52 51 50 49 49 48 46 43 43 42 41 42 46 47 47 45 41 41 43 46 45 46 46 46 46 46 47 49 46
50 49 49 49 50 48 48 48 48 47 47 46 44 43 42 41 38 39 41 41 40 41 41 43 43 42 42 44 44 44 46 46 46 45 46 44 46 48
49 48 48 48 48 48 48 47 46 44 44 42 42 41 41 41 41 40 40 39 40 41 42 42 43 42 41 42 44 46 43 43 43 43 42 43 44 44
46 48 48 48 48 47 47 46 44 43 46 46 44 46 43 42 40 40 40 41 37 37 41 39 35 37 39 40 38 41 44 39 39 39 38 36 39 44
44 45 48 49 48 48 48 47 45 45 45 46 46 45 43 41 39 39 39 39 37 36 40 40 38 42 42 41 36 37 42 44 40 35 35 35 35 37
46 46 50 49 48 50 47 46 46 45 43 44 45 43 42 40 40 40 38 37 37 37 38 42 43 42 40 39 38 39 39 43 44 46 45 43 36 34
43 45 48 51 50 49 48 49 48 47 47 47 44 43 42 40 40 39 38 37 37 36 36 37 40 41 38 38 38 37 36 36 39 39 39 47 49 48

GFSNE_sfc_dewp_141.txt.gz
Dewpoint
69 69 69 69 69 68 67 67 64 61 59 64 67 70 71 70 69 66 65 65 65 64 64 64 65 66 67 69 70 71 71 72 72 72 72 73 73 73
69 69 68 69 69 69 69 68 67 65 61 66 67 69 71 70 68 65 65 65 64 63 63 63 63 64 65 66 67 68 69 69 69 69 70 70 71 72
69 69 69 69 69 70 69 69 68 67 64 65 69 69 69 68 66 65 64 63 63 62 62 62 62 62 63 64 64 65 66 66 67 68 68 69 70 70
70 69 69 70 69 68 69 68 69 68 67 65 67 68 67 69 64 64 66 62 61 62 61 61 61 61 61 61 61 61 62 63 64 65 66 67 68 69
70 70 70 69 68 69 68 68 69 69 68 67 66 67 68 68 65 65 63 61 59 60 60 59 59 59 59 58 58 58 57 59 60 61 62 63 65 66
71 70 70 69 69 69 69 69 68 69 68 67 66 67 67 70 67 62 61 62 60 56 57 58 58 58 57 57 58 57 56 56 56 57 58 59 60 62
70 70 70 70 69 68 69 68 67 67 67 67 66 66 65 67 68 67 62 62 60 60 55 56 51 51 53 56 57 57 56 56 55 55 55 55 56 57
69 69 70 69 68 66 67 67 67 66 66 65 65 64 64 65 65 66 66 64 63 61 56 58 59 52 50 53 56 56 55 54 54 54 53 53 53 54
68 68 70 65 62 64 66 65 63 62 65 67 66 64 64 65 64 64 64 64 65 62 58 58 55 55 53 52 55 55 54 54 53 52 51 51 51 51
63 63 63 59 60 61 65 64 60 59 60 60 60 59 59 59 62 64 63 63 60 59 60 55 51 51 51 50 52 53 53 53 52 50 49 49 49 49
58 58 58 58 57 59 66 61 59 57 57 56 56 56 55 57 58 61 57 62 62 57 58 59 52 47 46 50 52 51 51 51 50 50 49 49 48 47
58 58 58 56 55 56 63 60 60 60 56 57 57 56 56 55 56 57 60 58 59 56 58 60 58 54 52 47 49 52 51 50 50 50 49 49 47 45
59 57 57 55 54 54 57 60 60 61 58 58 58 57 57 56 55 54 54 55 57 56 57 59 57 57 56 52 50 50 50 50 51 50 49 49 47 46
56 56 55 53 52 53 56 55 56 58 59 58 57 56 55 55 55 53 53 53 54 54 55 56 56 56 55 54 54 52 50 51 51 49 46 47 47 47
57 55 53 52 52 53 54 55 56 57 57 55 54 54 54 53 54 53 53 52 51 51 52 53 52 51 52 51 52 53 49 48 49 45 42 44 45 47
55 55 54 53 53 53 53 53 55 54 53 53 54 54 53 50 46 50 45 44 47 50 48 50 49 49 47 49 51 49 48 46 45 44 43 44 44 45
52 52 53 52 51 51 50 50 50 49 48 49 48 46 44 43 39 40 41 40 39 43 47 46 44 40 42 40 45 45 47 46 47 47 47 46 47 47
50 49 48 48 48 47 47 46 44 45 44 43 41 41 41 40 39 40 39 39 39 40 40 41 42 39 41 43 43 42 45 46 45 45 45 43 44 47
49 47 47 47 47 46 46 46 43 43 42 42 42 41 40 40 39 40 41 39 38 38 42 42 39 40 38 38 43 45 40 41 43 42 41 42 43 42
48 47 47 47 47 46 46 44 42 44 45 44 43 45 42 40 38 39 38 37 34 36 40 39 35 36 35 35 36 37 45 37 38 38 36 36 37 41
42 46 49 48 47 47 47 45 44 44 45 45 45 44 42 40 39 38 38 40 38 36 37 38 38 42 41 40 36 37 39 45 40 37 36 36 36 37
46 48 47 49 47 48 48 46 45 46 43 43 44 42 41 40 39 38 38 36 36 37 37 40 42 41 38 38 37 38 38 39 43 45 44 43 37 36
44 47 49 49 49 49 48 47 46 46 46 45 45 42 42 40 40 39 38 37 37 36 35 35 37 40 39 38 38 37 37 37 37 38 38 47 48 47

GFSNE_sfc_dewp_147.txt.gz
Dewpoint
75 75 76 76 75 77 76 72 70 62 62 64 67 73 74 73 71 71 70 66 65 64 64 64 65 65 67 69 70 71 72 73 73 73 72 72 73 73
74 74 75 75 74 77 76 74 73 72 64 67 67 70 74 71 71 72 69 66 64 63 63 63 64 64 65 66 67 68 69 69 70 70 70 70 71 72
74 73 74 74 70 73 74 72 76 75 68 66 70 71 74 74 72 71 68 68 65 63 63 63 62 63 63 64 64 65 65 66 67 67 67 68 69 70
73 73 73 71 74 74 71 74 74 75 73 70 73 73 75 74 74 72 69 65 66 62 61 62 61 61 61 61 60 60 61 62 63 64 65 66 67 68
73 73 73 73 73 72 72 71 70 70 73 68 69 70 70 72 71 71 70 68 63 61 61 60 60 60 59 59 59 58 57 57 58 59 60 62 64 65
74 74 73 73 74 73 72 73 71 71 70 70 69 68 71 72 70 69 68 67 66 61 59 60 60 59 59 59 59 58 56 56 56 56 57 58 59 59
73 74 73 73 69 69 74 75 73 70 69 72 70 68 67 70 70 70 68 69 69 66 64 62 60 57 56 58 58 57 56 55 55 55 55 55 55 55
73 72 73 71 70 66 65 66 67 71 71 68 67 67 69 69 68 69 69 68 67 68 66 64 61 55 54 55 56 54 53 52 53 53 53 53 52 52
72 72 71 67 68 69 66 63 62 61 63 68 68 65 66 64 64 68 69 69 67 63 64 62 58 52 53 54 55 53 51 51 51 51 51 51 50 50
70 69 70 68 65 67 69 64 60 58 61 60 62 61 62 63 64 65 66 63 61 61 63 58 59 54 54 55 54 53 51 50 49 50 50 49 48 48
66 65 65 65 59 60 68 62 60 59 58 58 58 57 56 56 59 62 61 64 60 59 60 58 56 54 54 54 54 52 52 50 50 50 49 49 48 48
62 62 58 61 56 59 66 61 58 58 59 59 58 56 57 56 56 58 60 61 60 59 59 60 56 55 52 50 54 53 51 51 50 49 49 49 48 49
62 61 61 55 54 55 59 63 60 60 59 58 58 57 56 56 56 55 56 56 59 54 56 62 60 59 58 56 54 52 52 52 52 51 49 49 49 48
59 59 56 52 52 54 58 55 56 59 59 55 52 52 52 50 50 53 57 55 54 54 57 58 49 48 47 47 48 56 52 52 54 54 53 50 49 49
59 55 52 52 53 55 54 56 58 58 54 52 52 50 47 47 50 50 55 57 56 53 50 56 50 51 46 43 44 47 50 53 54 53 54 52 48 47
56 55 54 54 53 54 55 55 56 55 54 53 47 46 47 45 44 44 44 46 48 49 52 53 54 52 42 43 45 44 48 50 54 53 53 54 50 48
55 55 54 54 53 51 50 50 50 50 49 48 46 45 44 43 44 44 43 43 43 43 43 44 52 53 50 52 41 43 46 48 50 51 54 52 49 49
54 54 54 53 52 50 48 47 46 46 45 44 44 44 43 42 43 44 43 41 41 41 40 41 41 40 42 50 47 40 40 42 47 51 51 48 46 49
53 52 51 50 49 46 44 43 43 46 50 45 44 43 41 41 40 40 40 39 38 39 40 41 40 38 35 32 39 46 38 39 40 43 45 43 43 43
47 47 47 47 47 45 44 44 46 46 45 44 44 43 41 40 39 39 38 39 38 39 38 40 40 40 38 38 38 40 44 42 40 39 39 40 41 46
48 48 48 47 47 46 46 47 48 47 46 45 45 43 43 40 41 40 39 40 41 39 38 38 41 44 45 44 38 36 40 45 45 44 43 40 38 38
48 49 50 50 50 50 50 49 48 48 48 47 47 47 46 45 42 42 41 39 40 39 38 39 43 42 41 39 37 39 36 39 45 47 47 45 40 36
51 50 51 52 52 52 51 50 48 46 47 47 46 47 47 44 46 45 43 42 41 39 39 38 38 39 39 38 40 37 40 39 38 38 38 48 49 49